Previsão horária em Juchitepec de Mariano Riva Palacio

Hoje, 18 Junho, Sexta-feira

Tempo Temperatura Precipitação Vento Pressão Humidade
00:00 +14°C° 0 mm 2 m/s 563 mmHg 82%
01:00 +14°C° 0 mm 1 m/s 562 mmHg 83%
02:00 +13°C° 0 mm 1 m/s 562 mmHg 83%
03:00 +13°C° 0 mm 1 m/s 562 mmHg 83%
04:00 +13°C° 0 mm 1 m/s 562 mmHg 83%
05:00 +13°C° 0 mm 1 m/s 562 mmHg 82%
06:00 +14°C° 0 mm 1 m/s 563 mmHg 78%
07:00 +15°C° 0 mm 1 m/s 563 mmHg 74%
08:00 +16°C° 0 mm 1 m/s 564 mmHg 70%
09:00 +18°C° 0.2 mm 1 m/s 564 mmHg 69%
10:00 +18°C° 0.2 mm 1 m/s 564 mmHg 68%
11:00 +19°C° 0.2 mm 1 m/s 564 mmHg 66%
12:00 +17°C° 0.7 mm 2 m/s 564 mmHg 70%
13:00 +17°C° 0.7 mm 2 m/s 563 mmHg 74%
14:00 +16°C° 0.7 mm 3 m/s 563 mmHg 77%
15:00 +16°C° 1 mm 2 m/s 563 mmHg 81%
16:00 +15°C° 1 mm 1 m/s 562 mmHg 85%
17:00 +14°C° 1 mm 1 m/s 562 mmHg 88%
18:00 +14°C° 0.7 mm 1 m/s 562 mmHg 89%
19:00 +14°C° 0.7 mm 1 m/s 563 mmHg 90%
20:00 +13°C° 0.7 mm 1 m/s 563 mmHg 91%
21:00 +13°C° 0.8 mm 1 m/s 563 mmHg 91%
22:00 +13°C° 0.8 mm 1 m/s 563 mmHg 90%
23:00 +13°C° 0.8 mm 1 m/s 563 mmHg 90%

Amanhã, 19 Junho, Sábado

Tempo Temperatura Precipitação Vento Pressão Humidade
00:00 +13°C° 0.7 mm 1 m/s 563 mmHg 91%
01:00 +13°C° 0.7 mm 1 m/s 562 mmHg 93%
02:00 +13°C° 0.7 mm 1 m/s 562 mmHg 94%
03:00 +13°C° 1.6 mm 1 m/s 562 mmHg 94%
04:00 +13°C° 1.6 mm 1 m/s 562 mmHg 94%
05:00 +13°C° 1.6 mm 1 m/s 563 mmHg 94%
06:00 +13°C° 0.8 mm 1 m/s 563 mmHg 92%
07:00 +13°C° 0.8 mm 1 m/s 563 mmHg 91%
08:00 +14°C° 0.8 mm 2 m/s 564 mmHg 89%
09:00 +15°C° 0.2 mm 2 m/s 564 mmHg 86%
10:00 +15°C° 0.2 mm 2 m/s 564 mmHg 83%
11:00 +16°C° 0.2 mm 2 m/s 564 mmHg 80%
12:00 +16°C° 0.4 mm 3 m/s 564 mmHg 82%
13:00 +16°C° 0.4 mm 3 m/s 564 mmHg 83%
14:00 +16°C° 0.4 mm 3 m/s 564 mmHg 85%
15:00 +15°C° 0.3 mm 2 m/s 564 mmHg 86%
16:00 +15°C° 0.3 mm 2 m/s 564 mmHg 86%
17:00 +15°C° 0.3 mm 2 m/s 563 mmHg 87%
18:00 +14°C° 0.1 mm 2 m/s 564 mmHg 88%
19:00 +14°C° 0.1 mm 1 m/s 564 mmHg 89%
20:00 +14°C° 0.1 mm 1 m/s 564 mmHg 90%
21:00 +13°C° 0.1 mm 1 m/s 564 mmHg 91%
22:00 +13°C° 0.1 mm 1 m/s 564 mmHg 92%
23:00 +13°C° 0.1 mm 1 m/s 564 mmHg 93%

Depois de amanhã, 20 Junho, Domingo

Tempo Temperatura Precipitação Vento Pressão Humidade
00:00 +13°C° 0 mm 1 m/s 564 mmHg 93%
01:00 +13°C° 0 mm 1 m/s 564 mmHg 93%
02:00 +12°C° 0 mm 1 m/s 563 mmHg 92%
03:00 +12°C° 0 mm 1 m/s 563 mmHg 92%
04:00 +12°C° 0 mm 1 m/s 563 mmHg 92%
05:00 +12°C° 0 mm 1 m/s 563 mmHg 92%
06:00 +14°C° 0 mm 1 m/s 564 mmHg 86%
07:00 +15°C° 0 mm 1 m/s 565 mmHg 81%
08:00 +18°C° 0 mm 1 m/s 566 mmHg 76%
09:00 +18°C° 0 mm 2 m/s 566 mmHg 70%
10:00 +19°C° 0 mm 2 m/s 567 mmHg 64%
11:00 +21°C° 0 mm 3 m/s 567 mmHg 58%
12:00 +21°C° 0.1 mm 3 m/s 567 mmHg 57%
13:00 +21°C° 0.1 mm 3 m/s 566 mmHg 57%
14:00 +21°C° 0.1 mm 3 m/s 566 mmHg 56%
15:00 +20°C° 0.1 mm 3 m/s 565 mmHg 61%
16:00 +19°C° 0.1 mm 3 m/s 565 mmHg 67%
17:00 +18°C° 0.1 mm 2 m/s 565 mmHg 72%
18:00 +17°C° 0 mm 2 m/s 565 mmHg 77%
19:00 +16°C° 0 mm 1 m/s 564 mmHg 82%
20:00 +15°C° 0 mm 1 m/s 564 mmHg 87%
21:00 +15°C° 0 mm 1 m/s 564 mmHg 87%
22:00 +15°C° 0 mm 1 m/s 565 mmHg 87%
23:00 +14°C° 0 mm 1 m/s 565 mmHg 87%

21 Junho, Segunda-feira

Tempo Temperatura Precipitação Vento Pressão Humidade
00:00 +14°C° 0 mm 1 m/s 564 mmHg 88%
01:00 +14°C° 0 mm 1 m/s 564 mmHg 89%
02:00 +14°C° 0 mm 1 m/s 563 mmHg 89%
03:00 +13°C° 0 mm 1 m/s 563 mmHg 89%
04:00 +13°C° 0 mm 1 m/s 563 mmHg 89%
05:00 +12°C° 0 mm 0 m/s 563 mmHg 89%
06:00 +14°C° 0 mm 1 m/s 564 mmHg 83%
07:00 +16°C° 0 mm 1 m/s 565 mmHg 77%
08:00 +19°C° 0 mm 1 m/s 566 mmHg 71%
09:00 +20°C° 0.1 mm 1 m/s 566 mmHg 67%
10:00 +20°C° 0.1 mm 2 m/s 566 mmHg 63%
11:00 +21°C° 0.1 mm 2 m/s 567 mmHg 58%
12:00 +21°C° 0.6 mm 2 m/s 566 mmHg 60%
13:00 +21°C° 0.6 mm 2 m/s 566 mmHg 61%
14:00 +21°C° 0.6 mm 2 m/s 565 mmHg 62%
15:00 +20°C° 0.6 mm 2 m/s 565 mmHg 65%
16:00 +19°C° 0.6 mm 2 m/s 565 mmHg 69%
17:00 +19°C° 0.6 mm 2 m/s 564 mmHg 72%
18:00 +18°C° 0.5 mm 2 m/s 564 mmHg 77%
19:00 +18°C° 0.5 mm 1 m/s 564 mmHg 81%
20:00 +16°C° 0.5 mm 1 m/s 564 mmHg 85%
21:00 +16°C° 1.1 mm 1 m/s 564 mmHg 86%
22:00 +15°C° 1.1 mm 1 m/s 564 mmHg 87%
23:00 +15°C° 1.1 mm 1 m/s 564 mmHg 89%

22 Junho, Terça-feira

Tempo Temperatura Precipitação Vento Pressão Humidade
00:00 +15°C° 1.7 mm 1 m/s 564 mmHg 88%
01:00 +14°C° 1.7 mm 1 m/s 564 mmHg 88%
02:00 +14°C° 1.7 mm 1 m/s 563 mmHg 88%
03:00 +14°C° 0.5 mm 1 m/s 563 mmHg 88%
04:00 +14°C° 0.5 mm 1 m/s 563 mmHg 88%
05:00 +14°C° 0.5 mm 1 m/s 563 mmHg 88%
06:00 +15°C° 0.2 mm 1 m/s 564 mmHg 83%
07:00 +16°C° 0.2 mm 1 m/s 565 mmHg 78%
08:00 +19°C° 0.2 mm 1 m/s 566 mmHg 72%
09:00 +20°C° 0.4 mm 1 m/s 566 mmHg 70%
10:00 +21°C° 0.4 mm 1 m/s 566 mmHg 67%
11:00 +22°C° 0.4 mm 1 m/s 566 mmHg 64%
12:00 +22°C° 0.8 mm 1 m/s 566 mmHg 64%
13:00 +22°C° 0.8 mm 1 m/s 566 mmHg 64%
14:00 +21°C° 0.8 mm 2 m/s 565 mmHg 63%
15:00 +21°C° 0.7 mm 1 m/s 565 mmHg 68%
16:00 +21°C° 0.7 mm 1 m/s 564 mmHg 72%
17:00 +20°C° 0.7 mm 1 m/s 564 mmHg 76%
18:00 +19°C° 1.6 mm 1 m/s 564 mmHg 79%
19:00 +16°C° 1.6 mm 1 m/s 564 mmHg 82%
20:00 +15°C° 1.6 mm 1 m/s 564 mmHg 85%
21:00 +15°C° 1.8 mm 1 m/s 564 mmHg 86%
22:00 +15°C° 1.8 mm 1 m/s 564 mmHg 88%
23:00 +14°C° 1.8 mm 1 m/s 564 mmHg 89%

23 Junho, Quarta-feira

Tempo Temperatura Precipitação Vento Pressão Humidade
00:00 +14°C° 1.1 mm 1 m/s 564 mmHg 88%
01:00 +14°C° 1.1 mm 1 m/s 564 mmHg 87%
02:00 +14°C° 1.1 mm 1 m/s 563 mmHg 87%
03:00 +14°C° 0.2 mm 1 m/s 563 mmHg 86%
04:00 +14°C° 0.2 mm 1 m/s 564 mmHg 85%
05:00 +14°C° 0.2 mm 1 m/s 564 mmHg 84%
06:00 +14°C° 0 mm 0 m/s 564 mmHg 80%
07:00 +15°C° 0 mm 0 m/s 565 mmHg 76%
08:00 +16°C° 0 mm 0 m/s 566 mmHg 72%
09:00 +19°C° 0 mm 1 m/s 566 mmHg 66%
10:00 +21°C° 0 mm 1 m/s 567 mmHg 60%
11:00 +21°C° 0 mm 2 m/s 567 mmHg 54%
12:00 +21°C° 0.4 mm 2 m/s 567 mmHg 56%
13:00 +21°C° 0.4 mm 2 m/s 566 mmHg 59%
14:00 +21°C° 0.4 mm 2 m/s 566 mmHg 61%
15:00 +21°C° 1.3 mm 1 m/s 565 mmHg 65%
16:00 +20°C° 1.3 mm 1 m/s 565 mmHg 70%
17:00 +19°C° 1.3 mm 1 m/s 564 mmHg 74%
18:00 +18°C° 1.3 mm 1 m/s 564 mmHg 78%
19:00 +16°C° 1.3 mm 2 m/s 564 mmHg 81%
20:00 +15°C° 1.3 mm 2 m/s 564 mmHg 85%
21:00 +14°C° 1 mm 2 m/s 564 mmHg 86%
22:00 +14°C° 1 mm 1 m/s 564 mmHg 87%
23:00 +14°C° 1 mm 1 m/s 564 mmHg 87%
Mostrar mais

Necessitamos do seu Consentimento

A Meteoprog e os seus Fornecedores de Serviços podem armazenar e aceder a dados pessoais como cookies, identificadores do dispositivo ou outras tecnologias semelhantes existentes no seu dispositivo e processar estes dados para personalizar conteúdos e anúncios, assim como funcionalidades nas redes sociais e análise de tráfego.

  • Armazenar e/ou aceder a informações no seu dispositivo

    Os cookies, identificadores do dispositivo ou outras informações podem ser armazenados ou acedidos no seu dispositivo, para os fins acima indicados.

  • Anúncios e conteúdos personalizados, medição de anúncios e conteúdos, dados sobre o público-alvo e desenvolvimento de produtos

    Os anúncios e os conteúdos podem ser personalizados com base num perfil. Podem ser adicionados dados adicionais para uma maior personalização dos anúncios e dos conteúdos. A eficácia dos anúncios e dos conteúdos pode ser medida. Podem ser obtidas informações sobre o público que visualizou os anúncios e os conteúdos. Estes dados podem ser usados para desenvolver ou melhorar sistemas, softwares ou a experiência do utilizador.

Ao clicar em "Eu concordo”, permitirá o uso de cookies, identificadores do dispositivo e web beacons mencionados ou outras tecnologias semelhantes. As configurações do navegador do seu dispositivo podem ser alteradas.

Para certos fins, podem ser invocados interesses legítimos ao invés de consentimento. Pode ler mais informação sobre este assunto na nossa Política de Privacidade e Cookies.